Waarnemingen

Advertentie
Mijn weer
Feldberg/Mecklenburg, Duitsland (10282): temperatuur & dauwpunt: 14.01.2019 12:00:00 - 20.01.2019 12:00:00 (CET)Feldberg/Mecklenburg, Duitsland (10282): temperatuur 5cm & temperatuur -5cm: 14.01.2019 12:00:00 - 20.01.2019 12:00:00 (CET)Feldberg/Mecklenburg, Duitsland (10282): temperatuur -20cm & temperatuur -100cm: 14.01.2019 12:00:00 - 20.01.2019 12:00:00 (CET)Feldberg/Mecklenburg, Duitsland (10282): windsnelheid & windstoten: 14.01.2019 12:00:00 - 20.01.2019 12:00:00 (CET)Feldberg/Mecklenburg, Duitsland (10282): windrichting: 14.01.2019 12:00:00 - 20.01.2019 12:00:00 (CET)Feldberg/Mecklenburg, Duitsland (10282): luchtdruk: 14.01.2019 12:00:00 - 20.01.2019 12:00:00 (CET)Feldberg/Mecklenburg, Duitsland (10282): zicht: 14.01.2019 12:00:00 - 20.01.2019 12:00:00 (CET)Feldberg/Mecklenburg, Duitsland (10282): Zonneschijnduur: 14.01.2019 12:00:00 - 20.01.2019 12:00:00 (CET)Feldberg/Mecklenburg, Duitsland (10282): neerslag: 14.01.2019 12:00:00 - 20.01.2019 12:00:00 (CET)
Datum & Tijd tt [°C] td [°C] tt 5cm [°C] tt -5cm [°C] tt -20cm [°C] tt -100cm [°C] ff [km/u] ff [kn] fx [km/u] fx [kn] dd ppp [hPa] vv [km] sd [min] rr [mm]
20.01.2019 12:00:00 -3,3 -4,5 -2,5 0,1 1,3 4,8 5 3 13 7 NO 1020,8 11 0 0,0
20.01.2019 11:00:00 -3,2 -4,4 -2,2 0,1 1,3 4,8 6 3 10 6 O 1020,7 13 0 0,0
20.01.2019 10:00:00 -3,4 -4,8 -3,1 0,1 1,3 4,8 4 2 10 5 N 1020,2 13 0 0,0
20.01.2019 09:00:00 -3,3 -4,3 -3,0 0,1 1,3 4,8 6 3 11 6 OZO 1019,7 10 0 0,0
20.01.2019 08:00:00 -3,2 -4,2 -2,9 0,1 1,3 4,8 6 3 12 7 NO 1019,2 9 0 0,0
20.01.2019 07:00:00 -3,0 -4,0 -2,8 0,1 1,3 4,8 5 3 13 7 O 1019,0 11 0 0,0
20.01.2019 06:00:00 -2,6 -3,9 -2,5 0,1 1,3 4,8 6 4 12 6 NNO 1018,9 12 0 0,0
20.01.2019 05:00:00 -2,3 -3,9 -2,3 0,1 1,3 4,8 5 3 11 6 ONO 1019,0 15 0 0,0
20.01.2019 04:00:00 -2,2 -3,1 -2,2 0,1 1,3 4,8 5 3 9 5 O 1019,0 8 0 0,0
20.01.2019 03:00:00 -2,8 -3,6 -3,5 0,1 1,3 4,8 5 3 7 4 O 1019,1 6 0 0,0
20.01.2019 02:00:00 -2,9 -3,5 -3,5 0,1 1,3 4,8 5 3 8 4 OZO 1019,1 5 0 0,0
20.01.2019 01:00:00 -2,9 -3,4 -4,3 0,1 1,4 4,8 6 3 10 5 OZO 1019,3 4,3 0 0,0
20.01.2019 00:00:00 -2,9 -3,4 -5,3 0,1 1,4 4,9 4 2 6 3 O 1019,7 4,2 0 0,0
19.01.2019 23:00:00 -2,1 -2,9 -2,6 0,2 1,4 4,9 6 3 15 8 ZZO 1019,6 6 0 0,0
19.01.2019 22:00:00 -1,8 -2,4 -1,5 0,1 1,4 4,9 6 3 11 6 OZO 1019,7 4,8 0 0,0
19.01.2019 21:00:00 -1,9 -2,4 -1,6 0,1 1,4 4,9 5 3 7 4 NO 1020,0 5 0 0,0
19.01.2019 20:00:00 -1,9 -2,4 -1,7 0,1 1,4 4,9 2 1 11 6 W 1019,9 5 0 0,0
19.01.2019 19:00:00 -1,5 -2,3 -1,2 0,1 1,4 4,9 6 4 11 6 Z 1019,8 7 0 0,0
19.01.2019 18:00:00 -1,6 -2,5 -1,3 0,1 1,4 4,9 3 2 11 6 ZZO 1019,9 9 0 0,0
19.01.2019 17:00:00 -1,3 -2,2 -1,0 0,1 1,4 4,9 9 5 11 6 Z 1020,0 9 0 0,0
19.01.2019 16:00:00 -1,0 -1,8 -0,8 0,1 1,4 4,9 6 3 10 6 Z 1020,1 7 0 0,0
19.01.2019 15:00:00 -1,0 -1,8 -0,7 0,1 1,5 4,9 5 3 11 6 ZW 1020,2 8 0 0,0
19.01.2019 14:00:00 -1,3 -1,8 -0,8 0,1 1,5 4,9 4 2 12 6 ZW 1020,5 6 0 0,0
19.01.2019 13:00:00 -1,5 -1,8 -0,9 0,1 1,5 5,0 8 5 15 8 ZZW 1020,7 3,4 0 0,0
19.01.2019 12:00:00 -1,7 -2,0 -1,1 0,1 1,5 5,0 11 6 15 8 ZW 1021,2 2,8 0 0,0
19.01.2019 11:00:00 -1,9 -2,4 -1,2 0,1 1,5 5,0 8 4 14 7 ZW 1021,3 3,9 0 0,0
19.01.2019 10:00:00 -1,6 -2,1 -1,1 0,1 1,5 5,0 10 5 16 8 ZW 1021,0 4,2 0 0,0
19.01.2019 09:00:00 -1,5 -2,2 -1,2 0,1 1,5 5,0 8 4 16 9 WZW 1020,7 9 0 0,0
19.01.2019 08:00:00 -1,2 -2,2 -1,2 0,1 1,5 5,0 11 6 20 11 WZW 1020,2 12 0 0,0
19.01.2019 07:00:00 -1,0 -2,2 -1,2 0,1 1,6 5,0 15 8 23 13 W 1019,9 15 0 0,0
19.01.2019 06:00:00 -1,0 -2,2 -1,2 0,2 1,6 5,0 16 9 25 13 WZW 1019,9 17 0 0,0
19.01.2019 05:00:00 -0,8 -2,3 -1,1 0,2 1,6 5,0 14 8 22 12 WZW 1019,8 20 0 0,0
19.01.2019 04:00:00 -0,9 -2,1 -1,0 0,2 1,6 5,0 11 6 18 10 WNW 1019,9 17 0 0,0
19.01.2019 03:00:00 -1,9 -2,9 -3,0 0,2 1,7 5,0 5 3 20 11 ZW 1020,0 15 0 0,0
19.01.2019 02:00:00 -1,9 -3,2 -3,3 0,2 1,7 5,0 8 4 22 12 W 1020,1 17 0 0,0
19.01.2019 01:00:00 -1,1 -2,8 -2,1 0,2 1,7 5,0 14 8 26 14 W 1019,9 20 0 0,0
19.01.2019 00:00:00 -0,7 -2,1 -1,1 0,2 1,7 5,0 13 7 22 12 W 1019,9 16 0 0,0
18.01.2019 23:00:00 -0,8 -2,2 -1,8 0,3 1,8 5,0 16 9 25 13 W 1019,4 15 0 0,0
18.01.2019 22:00:00 -0,7 -2,2 -1,7 0,3 1,8 5,0 18 10 27 15 W 1019,0 16 0 0,0
18.01.2019 21:00:00 -0,9 -2,3 -1,8 0,3 1,8 5,1 19 10 28 15 W 1018,6 17 0 0,0
18.01.2019 20:00:00 -0,8 -2,3 -1,7 0,3 1,9 5,1 20 11 28 15 W 1018,2 17 0 0,0
18.01.2019 19:00:00 -0,7 -2,1 -1,8 0,4 1,9 5,1 16 9 26 14 W 1017,8 19 0 0,0
18.01.2019 18:00:00 -0,7 -2,5 -1,6 0,4 2,0 5,1 19 10 26 14 W 1017,6 32 0 0,0
18.01.2019 17:00:00 -0,9 -3,0 -1,9 0,5 2,0 5,1 13 7 26 14 WZW 1017,3 49 0 0,0
18.01.2019 16:00:00 -0,3 -3,1 -0,8 0,6 2,0 5,1 19 10 29 16 WZW 1017,1 51 14 0,0
18.01.2019 15:00:00 0,3 -3,6 0,4 1,2 2,0 5,1 20 11 30 16 WZW 1016,7 55 41 0,0
18.01.2019 14:00:00 0,4 -4,4 0,6 0,6 2,0 5,1 18 10 34 18 WZW 1016,5 65 56 0,0
18.01.2019 13:00:00 0,4 -4,4 1,3 0,3 2,0 5,1 19 11 28 15 WZW 1016,3 26 60 0,0
18.01.2019 12:00:00 -0,2 -3,3 0,9 0,3 2,1 5,1 16 9 24 13 WZW 1016,1 34 60 0,0
18.01.2019 11:00:00 -0,4 -4,2 0,4 0,4 2,1 5,1 14 7 26 14 W 1015,9 47 60 0,0
18.01.2019 10:00:00 -1,4 -5,0 -1,1 0,4 2,2 5,1 17 9 25 14 WNW 1015,2 62 60 0,0
18.01.2019 09:00:00 -1,9 -4,9 -2,0 0,4 2,3 5,1 15 8 27 14 NW 1014,1 70 5 0,0
18.01.2019 08:00:00 -1,9 -4,9 -2,8 0,5 2,4 5,1 15 8 21 11 WNW 1013,0 67 0 0,0
18.01.2019 07:00:00 -1,8 -4,7 -2,8 0,5 2,4 5,1 12 7 28 15 NW 1011,5 70 0 0,0
18.01.2019 06:00:00 -1,4 -5,3 -1,7 0,6 2,5 5,1 17 9 32 17 NW 1010,1 70 0 0,0
18.01.2019 05:00:00 -1,2 -6,0 -1,7 0,6 2,6 5,1 16 8 31 17 NW 1008,8 70 0 0,0
18.01.2019 04:00:00 -0,9 -5,5 -1,6 0,6 2,7 5,1 17 9 33 18 NW 1007,4 70 0 0,0
18.01.2019 03:00:00 -1,0 -5,0 -1,7 0,7 2,9 5,1 18 10 37 20 NW 1006,1 67 0 0,0
18.01.2019 02:00:00 -0,5 -3,4 -1,1 0,8 3,1 5,1 17 9 34 18 NW 1004,7 65 0 0,0
18.01.2019 01:00:00 0,0 -3,1 -0,8 1,0 3,3 5,1 14 8 30 16 NNW 1003,2 61 0 0,1
18.01.2019 00:00:00 0,0 -0,9 0,0 1,3 3,4 5,1 17 9 28 15 NNW 1002,0 2,0 0 0,7
17.01.2019 23:00:00 0,7 -0,1 0,1 2,0 3,6 5,0 16 9 33 18 NW 1000,9 2,6 0 1,1
17.01.2019 22:00:00 2,8 0,7 2,5 2,6 3,6 5,0 21 11 34 19 W 999,2 37 0 0,0
17.01.2019 21:00:00 2,9 0,7 2,4 2,7 3,7 5,0 25 13 39 21 W 998,4 42 0 0,0
17.01.2019 20:00:00 2,8 0,9 2,0 2,8 3,8 5,0 16 8 32 17 W 997,6 35 0 0,1
17.01.2019 19:00:00 3,5 0,7 2,7 2,9 3,9 5,0 16 9 29 16 WZW 997,2 25 0 0,1
17.01.2019 18:00:00 3,8 0,4 2,7 3,1 4,0 5,0 24 13 45 25 ZW 996,9 17 0 0,1
17.01.2019 17:00:00 4,4 0,2 3,4 3,2 4,0 5,0 21 11 36 19 ZW 996,7 52 0 0,0
17.01.2019 16:00:00 4,6 0,0 4,2 3,8 4,0 5,0 20 11 40 22 ZW 996,6 57 0 0,0
17.01.2019 15:00:00 4,8 0,0 4,5 4,2 3,9 5,0 26 14 44 24 ZW 996,8 59 2 0,0
17.01.2019 14:00:00 4,9 0,4 4,9 4,3 3,8 5,0 23 13 46 25 ZW 997,0 56 0 0,0
17.01.2019 13:00:00 4,7 0,7 4,8 4,1 3,8 5,0 26 14 40 22 ZW 997,4 49 0 0,0
17.01.2019 12:00:00 4,3 0,7 4,1 3,7 3,7 5,0 24 13 40 22 ZW 998,0 44 0 0,0
17.01.2019 11:00:00 4,1 1,3 3,4 3,5 3,7 5,0 22 12 31 17 ZW 998,2 42 0 0,0
17.01.2019 10:00:00 3,8 2,3 3,3 3,3 3,7 5,0 22 12 35 19 WZW 997,8 18 0 0,2
17.01.2019 09:00:00 4,0 2,3 3,4 3,1 3,7 5,0 23 12 35 19 WZW 997,2 21 0 0,0
17.01.2019 08:00:00 3,7 2,4 3,2 3,0 3,7 5,0 22 12 36 20 WZW 996,5 18 0 0,0
17.01.2019 07:00:00 3,5 2,2 3,0 2,9 3,7 5,0 24 13 38 21 WZW 996,2 15 0 0,1
17.01.2019 06:00:00 3,2 1,8 2,6 2,8 3,8 5,0 21 12 35 19 ZW 995,8 11 0 0,2
17.01.2019 05:00:00 2,9 1,4 2,3 2,8 3,8 5,0 22 12 35 19 ZW 996,0 13 0 0,1
17.01.2019 04:00:00 2,7 1,0 2,2 2,8 3,9 5,0 20 11 36 19 ZW 996,4 16 0 0,2
17.01.2019 03:00:00 3,0 0,6 2,4 2,8 4,1 5,0 23 13 39 21 ZW 996,7 17 0 0,0
17.01.2019 02:00:00 3,0 0,3 2,5 3,0 4,2 4,9 21 12 36 19 ZW 997,4 23 0 0,0
17.01.2019 01:00:00 3,4 0,5 3,0 3,2 4,3 4,9 21 11 36 19 ZW 998,0 27 0 0,0
17.01.2019 00:00:00 3,8 0,7 3,2 3,5 4,4 4,9 22 12 36 19 ZW 999,1 29 0 0,0
16.01.2019 23:00:00 4,2 2,0 3,4 4,0 4,5 4,9 22 12 42 23 ZW 999,8 27 0 0,2
16.01.2019 22:00:00 5,0 2,1 4,7 4,3 4,5 4,9 23 12 40 22 ZW 1000,4 33 0 0,0
16.01.2019 21:00:00 5,3 2,8 5,0 4,6 4,6 4,9 25 13 35 19 ZW 1001,1 29 0 0,0
16.01.2019 20:00:00 5,6 3,7 5,3 4,7 4,6 4,9 23 13 40 21 ZW 1001,4 29 0 0,0
16.01.2019 19:00:00 5,9 3,7 5,6 4,8 4,6 4,9 25 13 39 21 ZW 1002,0 29 0 0,0
16.01.2019 18:00:00 5,6 4,2 5,4 4,8 4,6 4,9 21 12 31 17 ZW 1002,7 18 0 0,0
16.01.2019 17:00:00 5,8 4,4 5,5 5,0 4,6 4,9 19 10 35 19 ZW 1003,2 20 0 0,0
16.01.2019 16:00:00 5,8 4,5 5,4 5,1 4,5 4,9 21 11 35 19 ZW 1003,5 13 0 0,0
16.01.2019 15:00:00 6,2 4,0 6,0 5,1 4,5 4,9 19 11 31 17 ZW 1003,9 17 0 0,0
16.01.2019 14:00:00 6,2 4,2 6,0 5,2 4,4 4,9 21 11 32 17 ZW 1004,4 13 0 0,0
16.01.2019 13:00:00 6,0 4,4 5,9 5,1 4,4 4,9 22 12 31 17 WZW 1005,0 10 0 0,0
16.01.2019 12:00:00 5,7 4,7 5,4 5,0 4,3 4,9 19 11 32 18 WZW 1005,6 7 0 0,0
16.01.2019 11:00:00 5,6 4,7 5,3 4,9 4,3 4,9 20 11 32 17 WZW 1006,1 7 0 0,0
16.01.2019 10:00:00 5,5 4,6 5,2 4,7 4,3 4,9 19 10 27 15 WZW 1006,4 8 0 0,0
16.01.2019 09:00:00 5,7 4,5 5,3 4,7 4,2 4,9 19 10 32 17 WZW 1006,4 9 0 0,0
16.01.2019 08:00:00 6,0 4,4 5,8 4,7 4,2 4,9 19 10 30 16 WZW 1006,0 12 0 0,0
16.01.2019 07:00:00 6,1 4,5 5,7 4,8 4,2 4,9 22 12 37 20 W 1005,9 16 0 0,0
16.01.2019 06:00:00 6,3 4,7 5,9 4,9 4,1 4,9 21 12 44 24 W 1006,0 20 0 0,0
16.01.2019 05:00:00 6,6 4,7 6,2 5,0 4,0 4,9 28 15 43 23 W 1006,0 21 0 0,0
16.01.2019 04:00:00 6,9 5,5 6,5 5,1 3,9 4,9 27 15 50 27 W 1006,0 22 0 0,0
16.01.2019 03:00:00 6,7 5,9 6,3 5,0 3,8 4,9 25 14 43 23 W 1005,7 36 0 0,4
16.01.2019 02:00:00 6,4 5,7 6,0 4,8 3,7 4,9 27 15 45 25 W 1005,1 12 0 0,3
16.01.2019 01:00:00 6,3 5,6 5,9 4,7 3,6 4,9 24 13 38 20 W 1005,0 18 0 1,3
16.01.2019 00:00:00 6,2 5,7 5,8 4,6 3,4 5,0 23 13 36 20 W 1005,1 6 0 1,0
15.01.2019 23:00:00 6,4 5,4 5,8 4,5 3,3 5,0 24 13 39 21 W 1005,2 11 0 0,5
15.01.2019 22:00:00 6,4 5,1 6,0 4,3 3,1 5,0 25 14 47 26 W 1004,9 48 0 0,0
15.01.2019 21:00:00 6,4 5,2 6,0 4,2 3,0 5,0 30 16 49 26 W 1004,4 54 0 0,0
15.01.2019 20:00:00 6,0 5,2 5,5 4,0 2,8 5,0 32 18 50 27 W 1003,9 24 0 0,1
15.01.2019 19:00:00 5,6 4,8 5,2 3,7 2,6 5,0 33 18 53 29 W 1003,4 9 0 0,2
15.01.2019 18:00:00 5,3 4,6 4,9 3,3 2,4 5,0 33 18 59 32 W 1003,3 3,6 0 0,3
15.01.2019 17:00:00 4,9 4,2 4,5 3,0 2,2 5,0 31 17 45 24 WZW 1004,1 3,4 0 0,2
15.01.2019 16:00:00 4,5 3,6 4,1 2,8 2,0 5,0 29 15 45 24 W 1004,7 10 0 0,6
15.01.2019 15:00:00 4,5 2,9 4,1 2,4 1,8 5,0 27 15 42 23 W 1005,4 21 0 0,0
15.01.2019 14:00:00 4,2 2,6 3,7 2,0 1,6 5,0 24 13 41 22 W 1005,8 25 0 0,0
15.01.2019 13:00:00 3,9 2,3 3,5 0,7 1,6 5,0 26 14 44 24 W 1007,0 17 0 0,0
15.01.2019 12:00:00 3,6 1,8 3,1 0,2 1,6 5,0 29 16 46 25 W 1007,3 23 0 0,0
15.01.2019 11:00:00 2,8 1,2 2,2 0,3 1,7 5,0 27 15 45 24 W 1007,4 37 0 0,1
15.01.2019 10:00:00 2,2 0,8 1,7 0,3 1,7 5,0 29 16 43 23 W 1007,5 32 0 0,0
15.01.2019 09:00:00 2,4 0,5 1,5 0,3 1,7 5,0 34 18 48 26 W 1007,8 30 0 0,1
15.01.2019 08:00:00 1,9 0,1 1,1 0,3 1,7 5,1 32 17 52 28 W 1007,3 31 0 0,2
15.01.2019 07:00:00 1,5 0,2 0,8 0,3 1,8 5,1 28 15 42 23 W 1007,6 16 0 0,1
15.01.2019 06:00:00 0,7 -0,2 0,2 0,3 1,8 5,1 18 10 38 21 W 1008,0 25 0 0,6
15.01.2019 05:00:00 1,8 -1,7 1,4 0,3 1,8 5,1 27 14 43 23 WNW 1008,5 20 0 0,0
15.01.2019 04:00:00 1,9 -2,1 1,2 0,3 1,9 5,1 23 12 39 21 WNW 1008,2 33 0 0,0
15.01.2019 03:00:00 1,0 -2,7 0,7 0,3 1,9 5,1 19 10 31 17 W 1008,1 35 0 0,0
15.01.2019 02:00:00 0,2 -2,6 -0,8 0,3 1,9 5,1 19 10 37 20 W 1007,9 33 0 0,0
15.01.2019 01:00:00 0,3 -3,6 -0,5 0,3 2,0 5,1 23 12 38 21 WNW 1007,7 39 0 0,0
15.01.2019 00:00:00 0,6 -3,5 0,3 0,3 2,0 5,1 26 14 41 22 W 1007,4 39 0 0,0
14.01.2019 23:00:00 0,6 -3,7 0,2 0,4 2,1 5,1 25 13 39 21 W 1007,3 36 0 0,0
14.01.2019 22:00:00 0,6 -3,8 0,2 0,4 2,1 5,1 23 13 41 22 W 1006,8 40 0 0,0
14.01.2019 21:00:00 0,6 -4,2 0,2 0,4 2,2 5,1 25 14 40 22 W 1006,4 41 0 0,0
14.01.2019 20:00:00 0,5 -4,5 -0,1 0,4 2,3 5,1 24 13 36 20 W 1005,7 42 0 0,0
14.01.2019 19:00:00 0,5 -5,3 -0,3 0,5 2,3 5,1 24 13 40 22 WNW 1005,1 45 0 0,0
14.01.2019 18:00:00 0,4 -5,7 -0,7 0,5 2,4 5,1 27 15 41 22 W 1004,3 49 0 0,0
14.01.2019 17:00:00 0,5 -6,6 -0,5 0,6 2,5 5,1 23 13 43 23 WNW 1003,7 55 0 0,0
14.01.2019 16:00:00 0,8 -6,5 0,0 0,6 2,6 5,1 24 13 56 30 WNW 1003,0 63 37 0,0
14.01.2019 15:00:00 1,1 -7,7 0,6 1,4 2,6 5,0 34 18 78 42 NW 1001,7 63 40 0,0
14.01.2019 14:00:00 1,7 -7,0 2,2 1,8 2,6 5,0 32 17 63 34 WNW 1000,3 25 32 0,0
14.01.2019 13:00:00 1,6 -6,7 2,1 1,6 2,6 5,0 30 16 54 29 NW 999,1 48 20 0,0
14.01.2019 12:00:00 1,6 -5,4 1,8 1,1 2,7 5,0 35 19 61 33 WNW 998,3 48 10 0,0

tt = temperatuur
td = dauwpunt
tt 5cm = temperatuur 5cm
tt -5cm = temperatuur -5cm
tt -20cm = temperatuur -20cm
tt -100cm = temperatuur -100cm
ff = windsnelheid
fx = windstoten
dd = windrichting
ppp = luchtdruk
vv = zicht
sd = Zonneschijnduur
rr = neerslag

Weerstations in de omgeving